Location: Saluda
(35.2377°N, 82.3468°W)
Time: 04:10:17
(UTC+00:00)

Vanguard 2 Rocket - Pass Details

Date: 06 October 2022
Orbit: 555 x 3321 km, 32.9° (Epoch: 05 December)

Event Time Altitude Azimuth Distance (km) Brightness Sun altitude
Rises 00:36:25 0° 213° (SSW) 7,253 11.8 -19.0°
Reaches altitude 10° 00:42:00 10° 206° (SSW) 6,270 11.3 -20.1°
Maximum altitude 00:58:56 36° 148° (SSE) 4,003 9.8 -23.5°
Enters shadow 01:04:01 31° 119° (ESE) 3,974 9.5 -24.5°
Drops below altitude 10° 01:11:42 10° 89° (E) 4,803 - -26.0°
Sets 01:15:14 0° 81° (E) 5,456 - -26.8°
